EHI
68 48 37 44 51 49 40 29 17 6 2 1 0 0 0 0 0 0 0 0 0 1 7 22 43 64 75 76 62 33 9 0 0 0 0 0 0 0 0 0 0 0 0
50 34 23 26 28 24 18 12 7 3 1 0 0 0 0 0 0 0 0 0 0 3 8 17 31 46 57 59 49 28 8 0 0 0 0 0 0 0 0 0 0 0 0
21 15 9 8 7 4 2 0 0 1 1 1 1 0 0 0 0 0 0 0 0 3 8 11 14 20 25 28 25 15 5 0 0 0 0 0 0 0 0 0 0 0 0
4 3 3 2 1 1 0 0 0 1 3 3 2 0 0 0 0 0 0 0 0 1 4 5 4 4 5 6 6 5 2 0 0 0 0 0 0 0 0 0 0 0 0
0 0 0 0 0 0 0 0 0 1 3 3 1 0 0 0 0 0 0 0 0 0 0 1 0 0 0 0 0 1 1 0 0 0 0 0 0 0 0 0 0 0 0
0 0 0 0 0 0 0 0 0 1 2 3 1 0 0 0 0 0 0 0 0 0 0 0 0 0 0 0 0 0 0 0 0 0 0 0 0 0 0 0 0 0 0
0 0 0 0 0 0 0 0 0 1 3 5 3 0 0 0 0 0 0 0 0 0 0 0 0 0 0 0 0 0 0 0 0 0 0 0 0 0 0 0 0 0 0
0 0 0 0 0 0 0 0 0 1 3 4 2 0 0 0 0 0 0 0 0 0 0 0 0 0 0 0 0 0 0 0 0 0 0 0 0 0 0 0 0 0 0
0 0 0 0 0 0 0 0 0 0 1 1 1 0 0 0 0 0 0 0 0 0 0 0 0 0 0 0 0 0 0 0 0 0 0 0 0 0 0 0 0 0 0
0 0 0 0 0 0 0 0 0 0 0 0 0 0 0 0 0 0 0 0 0 0 0 0 0 0 0 0 0 0 0 0 0 0 0 0 0 0 0 0 0 0 0
0 0 0 0 0 0 0 0 0 0 0 0 0 0 0 0 0 0 0 0 0 0 0 0 0 0 0 0 0 0 0 0 0 0 0 0 0 0 0 0 0 0 0
0 0 0 0 0 0 0 0 0 0 0 0 0 0 0 0 0 0 0 0 0 0 0 0 0 0 0 0 0 0 0 0 0 0 0 0 0 0 0 0 0 0 0
0 0 0 0 0 0 0 0 0 0 0 0 0 0 0 0 0 0 0 0 0 0 0 0 0 0 0 0 0 0 0 0 0 0 0 0 0 0 0 0 0 0 0
0 0 0 0 0 0 0 0 0 0 0 0 0 0 0 0 0 0 0 0 0 0 0 0 0 0 0 0 0 0 0 0 0 0 0 0 0 0 0 0 0 0 0
0 0 0 0 0 0 0 0 0 0 0 0 0 0 0 0 0 0 0 0 0 0 0 0 0 0 0 0 0 0 0 0 0 0 0 0 0 0 0 0 0 0 0
0 0 0 0 0 0 0 0 0 0 0 0 0 0 0 0 0 0 0 0 0 0 0 0 0 0 0 0 0 0 0 0 0 0 0 0 0 0 0 0 0 0 0
0 0 0 0 0 0 0 0 0 0 0 0 0 0 0 0 0 0 0 0 0 0 0 0 0 0 0 0 0 0 0 0 0 0 0 0 0 0 0 0 0 0 0
0 0 0 0 0 0 0 0 0 0 0 0 0 0 0 0 0 0 0 0 0 0 0 0 0 0 0 0 0 0 0 0 0 0 0 0 0 0 0 0 0 0 0
0 0 0 0 0 0 0 0 0 0 0 0 0 0 0 0 0 0 0 0 0 0 0 0 0 0 0 0 0 0 0 0 0 0 0 0 0 0 0 0 0 0 0
0 0 0 0 0 0 0 0 0 0 0 0 0 0 0 0 0 0 0 0 0 0 0 0 0 0 0 0 0 0 0 0 0 0 0 0 0 0 0 0 0 0 0
0 0 0 0 0 0 0 0 0 0 0 0 0 0 0 0 0 0 0 0 0 0 0 0 0 0 0 0 0 0 0 0 0 0 0 0 0 0 0 0 0 0 0
0 0 0 0 0 0 0 0 0 0 0 0 0 0 0 0 0 0 0 0 0 0 0 0 0 0 0 0 0 0 0 0 0 0 0 0 0 0 0 0 0 0 0
0 0 0 0 0 0 0 0 0 0 0 0 0 0 0 0 0 0 0 0 0 0 0 0 0 0 0 0 0 0 0 0 0 0 0 0 0 0 0 0 0 0 0
0 0 0 0 0 0 0 0 0 0 0 0 0 0 0 0 0 0 0 0 0 0 0 0 0 0 0 0 0 0 0 0 0 0 0 0 0 0 0 0 0 0 0
0 0 0 0 0 0 0 0 0 0 0 0 0 0 0 0 0 0 0 0 0 0 0 0 0 0 0 0 0 0 0 0 0 0 0 0 0 0 0 0 0 0 0
0 0 0 0 0 0 0 0 0 0 0 0 0 0 0 0 0 0 0 0 0 0 0 0 0 0 0 0 0 0 0 0 0 0 0 0 0 0 0 0 0 0 0
Wind_Speed
3 2 3 4 4 2 1 1 2 2 2 1 1 2 3 3 4 4 6 6 6 6 6 6 7 7 7 9 8 5 5 5 3 2 4 5 8 11 10 9 8 9 9
3 2 1 2 1 1 1 2 3 3 4 3 3 3 3 3 4 4 6 7 7 7 5 6 6 6 6 6 6 6 4 4 5 4 2 3 5 6 8 8 8 8 7
8 5 3 3 2 3 4 4 5 5 5 5 3 2 2 3 3 5 5 6 7 7 7 7 6 6 6 6 8 8 7 6 5 6 5 4 5 4 3 3 4 4 4
7 6 6 6 6 7 7 7 7 7 7 6 4 4 3 4 5 5 5 7 8 8 8 7 7 7 6 7 7 8 6 6 5 4 5 4 3 2 4 3 2 3 2
9 9 10 9 9 8 7 6 6 6 6 5 4 3 3 3 4 4 6 7 8 8 8 7 7 7 7 8 8 7 7 6 6 5 4 4 4 5 4 4 4 3 3
9 10 10 8 7 5 4 3 3 4 3 2 1 1 1 3 4 6 7 7 7 8 9 8 8 8 7 8 8 7 7 7 6 5 5 4 4 4 4 5 3 2 3
8 8 8 7 5 5 5 3 3 3 2 3 3 3 3 2 2 4 6 9 8 9 10 9 8 7 7 7 7 6 6 6 6 6 4 4 4 3 3 3 2 0 2
7 7 8 7 5 6 5 4 5 4 4 4 3 3 3 1 1 3 5 7 8 9 10 10 8 7 7 6 5 5 5 5 7 7 5 4 4 3 3 3 2 1 2
6 5 5 6 6 6 6 7 7 6 5 4 3 3 3 2 2 3 5 6 7 8 9 8 6 4 3 4 4 3 4 5 6 6 6 4 2 2 2 2 2 3 2
3 4 6 6 6 6 6 7 7 6 4 4 4 3 3 2 0 2 5 6 8 8 9 8 5 2 1 1 2 2 3 3 3 3 4 3 2 2 1 2 2 3 3
3 4 6 6 7 6 6 6 5 4 4 5 5 4 3 3 1 2 4 5 6 7 8 8 6 4 3 1 0 1 1 3 2 2 3 4 4 3 2 3 3 2 3
4 5 6 6 6 6 5 6 5 5 6 6 5 5 4 3 3 3 5 5 6 6 6 6 6 5 4 4 4 3 3 4 4 4 5 6 6 5 4 4 4 3 2
9 8 5 5 6 6 5 6 6 7 6 6 6 5 5 5 5 5 5 5 5 6 6 6 6 6 5 6 6 6 6 6 6 7 7 6 7 7 5 6 5 4 5
13 15 11 8 7 6 6 6 7 8 7 6 6 6 7 6 6 5 5 5 5 5 6 5 5 5 5 5 6 8 7 7 7 7 7 6 6 6 6 6 6 7 7
13 14 14 12 11 8 7 7 7 7 7 6 7 7 7 6 6 5 5 4 4 4 4 3 4 5 4 4 7 7 7 8 9 9 9 8 9 10 7 6 6 7 6
10 10 10 12 13 13 11 9 8 7 6 7 7 7 7 6 6 6 5 3 3 2 0 3 4 4 3 5 9 7 7 8 9 8 7 7 8 10 13 13 11 8 6
9 9 9 9 10 11 12 12 10 7 6 7 7 8 8 7 7 6 5 4 2 2 3 3 4 4 4 7 10 10 7 7 7 7 7 7 8 9 9 11 12 11 10
10 7 6 6 6 8 10 12 12 10 6 6 7 8 8 8 7 6 6 5 4 4 4 3 4 5 6 11 12 12 9 8 7 7 7 8 7 7 8 8 8 7 7
9 8 7 6 5 6 7 10 11 11 9 6 6 7 9 9 8 8 7 5 5 4 4 4 5 6 5 11 12 10 7 7 6 5 6 8 8 11 13 10 8 9 7
10 9 9 7 5 5 4 6 8 9 10 12 10 7 8 10 10 9 7 5 5 5 6 5 4 6 5 9 12 11 6 6 5 5 6 9 10 12 12 9 9 9 6
14 12 11 8 6 5 3 3 5 6 7 10 13 11 8 10 10 8 6 6 6 6 6 6 4 4 5 7 10 12 6 7 6 4 3 4 11 12 12 10 7 6 5
14 12 10 8 6 6 4 3 3 4 5 7 10 13 11 9 9 8 7 7 8 8 7 5 4 2 3 4 7 13 11 9 7 5 3 3 9 11 10 8 10 11 8
12 10 8 8 8 7 6 6 6 5 4 5 7 10 13 10 8 9 10 8 8 8 6 6 5 4 3 3 6 12 15 12 6 5 8 7 8 8 6 8 10 8 6
13 11 9 9 9 8 8 9 8 6 4 5 6 7 10 10 9 8 9 9 9 9 8 7 7 5 4 3 3 5 8 9 7 5 6 6 4 4 4 5 5 4 4
14 12 12 12 12 10 9 10 9 7 6 6 6 7 8 10 9 10 10 12 11 12 11 9 9 9 7 8 12 10 7 6 6 6 3 2 2 2 2 3 3 3 4
16 16 16 15 13 10 10 10 10 8 7 5 6 6 6 7 8 9 8 11 11 16 17 15 13 10 12 16 16 15 15 14 13 7 3 2 2 3 4 4 2 2 3
Wind_Direction
121 88 78 75 71 63 77 175 207 205 186 201 236 251 256 259 269 267 266 271 268 256 241 241 238 225 223 223 217 209 210 217 181 203 265 264 247 245 247 244 241 243 242
143 176 117 75 63 44 130 190 209 214 205 204 211 218 236 257 259 269 278 276 275 267 250 241 241 234 231 227 217 207 207 210 182 191 214 284 299 259 247 247 246 248 245
175 188 188 209 213 217 207 203 214 215 211 210 218 258 288 297 296 294 291 287 284 278 265 249 243 238 226 229 226 216 211 220 213 200 187 201 240 294 294 261 257 270 256
169 175 188 199 203 209 206 203 210 212 215 209 209 224 244 265 271 279 284 290 288 280 272 261 249 240 228 227 228 222 216 212 222 211 211 210 194 224 301 309 303 296 273
176 186 198 203 206 204 201 205 210 215 219 215 217 236 260 271 291 306 306 304 299 289 279 269 258 245 230 223 222 220 214 208 208 201 191 213 226 220 228 273 300 316 284
196 205 214 213 219 219 216 215 207 219 216 188 154 130 331 336 337 330 323 317 308 298 287 276 261 245 231 223 221 221 217 212 209 200 187 182 194 204 209 226 248 287 297
221 227 233 234 239 231 230 226 198 208 185 136 121 114 105 64 348 325 321 316 307 298 287 277 262 248 234 225 214 207 211 205 199 195 191 192 204 197 189 178 185 329 336
243 243 238 228 221 215 215 207 199 208 192 164 147 129 117 102 345 325 317 312 306 298 291 279 262 248 234 221 209 207 210 208 210 209 199 196 213 199 172 155 143 107 22
252 234 203 183 187 195 201 200 205 213 203 179 148 132 123 91 355 329 323 320 319 316 317 308 284 258 231 213 196 205 212 211 215 210 202 196 189 168 157 146 138 132 110
205 177 178 183 192 199 206 205 210 210 199 177 166 163 161 157 273 324 327 324 324 331 340 344 339 325 275 213 197 206 210 191 188 178 170 156 128 126 141 138 127 132 135
209 218 216 207 201 202 201 202 209 202 195 191 184 178 181 184 227 293 306 313 319 334 347 351 357 354 345 337 170 199 171 139 107 91 123 123 117 120 129 121 123 125 119
297 272 243 216 209 210 207 201 200 202 210 204 193 194 190 192 223 264 287 303 316 328 342 352 359 9 27 40 56 64 73 86 94 101 100 105 109 98 90 87 89 93 104
348 333 300 248 233 226 215 203 204 211 216 204 194 192 193 202 224 248 272 296 310 325 342 354 5 18 35 47 58 77 86 91 95 100 102 104 102 91 85 83 82 80 80
18 10 358 328 288 252 225 211 215 214 212 202 193 192 198 203 217 237 256 277 298 320 336 349 8 22 34 59 78 94 95 93 89 87 86 84 90 95 92 84 82 88 88
23 17 10 358 343 313 277 244 229 221 211 202 197 199 198 199 207 224 240 256 280 303 328 23 37 34 37 75 103 107 103 97 88 78 71 68 76 83 84 86 82 88 91
18 10 7 3 353 340 317 289 258 236 212 204 204 196 193 200 206 211 218 233 263 287 78 112 84 53 48 98 113 117 106 102 94 86 74 66 62 77 78 78 76 84 95
7 3 1 359 356 351 345 330 302 269 223 209 202 191 192 202 206 199 195 198 197 158 137 134 117 90 73 109 121 116 112 106 95 88 81 73 63 71 78 72 66 61 63
339 333 328 328 333 340 343 343 336 313 267 224 203 192 191 201 201 193 189 178 163 157 151 155 130 95 75 98 110 106 98 94 93 98 100 92 70 71 83 71 56 42 33
303 294 285 281 301 325 335 342 351 342 320 287 242 205 193 196 196 194 190 175 159 162 162 162 141 111 92 101 110 109 100 96 87 86 90 95 85 79 81 75 63 46 25
300 297 295 280 289 302 328 351 353 360 352 338 314 270 205 194 198 193 182 166 159 167 162 162 155 135 122 113 118 120 116 108 95 74 70 82 91 83 81 80 74 60 30
292 293 297 282 272 282 313 345 348 350 342 338 339 316 254 206 198 184 172 163 157 157 163 160 160 152 143 127 137 142 135 136 126 111 94 86 98 95 90 87 80 82 83
291 292 291 281 276 275 272 284 289 290 317 341 344 329 289 233 202 179 173 166 163 164 166 157 158 161 153 145 158 163 159 151 139 143 147 136 119 111 102 88 91 89 82
292 289 279 277 280 277 263 257 254 260 293 323 325 320 307 259 210 183 176 168 168 169 168 163 167 175 175 175 169 166 162 154 140 153 162 160 137 108 86 83 92 90 84
286 280 274 275 275 271 256 244 242 242 260 285 293 299 304 275 227 194 179 175 175 174 170 170 173 169 167 168 149 139 147 147 131 136 162 163 134 95 88 79 79 86 104
279 277 275 274 272 271 263 253 243 235 239 258 273 277 282 275 237 206 193 186 187 183 174 178 175 173 179 189 169 155 155 157 154 136 110 96 97 100 86 86 90 91 94
275 275 275 273 272 269 263 259 247 233 228 241 263 268 274 275 245 213 199 201 187 185 182 176 174 186 181 169 171 167 167 166 154 132 132 159 180 171 157 152 144 119 112